"Pseudo-MPEC" for P10HNrb

Created 2018 Jun 17 14:18:23 UT using Find_Orb

Click here for an explanation of pseudo-MPECs

 
 Astrometry: 
     P10HNrb  C2018 06 149ZAstrometry:;0i.lgZDAj@3Ob8o^PRJ@rZ2?jw)vkx`Z-,!gPwF51
     P10HNrb  C2018 06 141J0:3H/qxAsh_-F!*PRON8c[yeO3TL'gN7^-Yyu59(\:g2l:_ZP^F51
     P10HNrb  C2018 06 14ERg;@AgGbo8FOEZO@oB#Q6j=]`XB@bZ?:!ZZw!\_pt`Ft@On5qqAF51
     P10HNrb KC2018 06 14aa^DHpfhXbMB-SDC8nxnlrC`.nX)V?AA8AdJuLwQn_*l(wauUlnS474
     P10HNrb KC2018 06 14-V!e_1*Z2r-jw(N4dgWJ;r$k'K94XI6CbG'B3-otwlWmtkXb/i2%474
     P10HNrb KC2018 06 14;6pv;/1sX!tDj+1d]redacted;#APx2b:v+!pKw24b+F=H@?F\/Q474
     P10HNrb |C2018 06 15nthKo?#\[=XgC3g:8LLZ1rwY8qYNeBTSHJLK`.Cuf+ZC5`IIrAG+807
     P10HNrb |C2018 06 153e;xP8S]`W01=T5mutcUqx@HhaIsNA^i?h'LLA)6STai!6cdFZ=T807
     P10HNrb |C2018 06 15?*;h#C/bg(*nUV68FCm^\!O@u4]7iA^DD\-`I5kqD!a7H^*C@XLt807
     P10HNrb KC2018 06 15xG/[8R7Yj[WLBru1=G0r.Gtm+wjKUSccseehU;Y4+nE26qa!h.1a291
     P10HNrb KC2018 06 15=X[0=XTCgpCt3,h!uV`iUrYMZ[;hl_%8Ivp#?8sb2,HOtI$P0n`(291
     P10HNrb KC2018 06 15'3(_/+DhwndmK*_EFr+I!Zr%d\MJ?U7[q@tZ%?gAI8%/7K'wt\1G291
     P10HNrb |C2018 06 17au)5D78oW2*\+,^rM.eR=VXx-,Z-u:kd:m.Q+XcrbE#H^PPF;(=K807
     P10HNrb |C2018 06 17:oY!Owb$kSi_!Qk`/TXKS\tk2J7',T,!IeVR=W.LnMQ_g;mFfF\:807
     P10HNrb |C2018 06 178H))K85aU\nr%ZL%(SVAAKhA85W,'YKdbvQ`82287G?OLLKNEOCP807

Station data:
(291) LPL/Spacewatch II  (N31.961669 W111.599905)  US/Arizona.  Observers J.
   V. Scotti, R. S. McMillan. 1.8-m f/2.7 reflector + CCD.
(474) Mount John Observatory, Lake Tekapo  (S43.987388 E170.464960)  New
   Zealand.  Observers A. C. Gilmore, P. M. Kilmartin. Measurer P. M.
   Kilmartin. 1.0-m f/7.7 reflector + CCD.
(807) Cerro Tololo Observatory, La Serena  (S30.169136 W70.805900)  Chile.
   1.5-m Ritchey-Chrétien.
(F51) Pan-STARRS 1, Haleakala  (N20.707235 W156.255910)  US/Hawaii.
   Observers N. Primak, A. Schultz, S. Watters, J. Thiel, T. Goggia. Measurer
   PS1 Science Consortium. 1.8-m Ritchey-Chrétien + CCD.

Orbital elements:  P10HNrb
   Perihelion 2018 Jul 14.606881 +/- 0.102 TT = 14:33:54 (JD 2458314.106881)
Epoch 2018 Jun 17.0 TT = JDT 2458286.5   Earth MOID: 0.2929   AutoNEOCP
M 353.51549 +/- 0.17                (J2000 ecliptic)
n   0.23488709 +/- 0.00677          Peri.    9.14672 +/- 0.10
a   2.60153661 +/- 0.05             Node   267.45961 +/- 0.10
e   0.4978292 +/- 0.00857           Incl.   18.70692 +/- 0.17
P   4.20                   H 21.4   G  0.15   U  9.4  
q 1.30641551 +/- 0.00311    Q 3.89665770 +/- 0.0996
From 15 observations 2018 June 14-17; mean residual 0".24
Residuals in arcseconds: 
180614 F51  .70+  .31-    180614 474  .14-  .04+    180615 291  .40+  .00     
180614 F51  .07-  .02-    180615 807  .27-  .24-    180615 291  .36-  .41+    
180614 F51  .02+  .13+    180615 807  .33-  .09-    180617 807  .01+  .06-    
180614 474  .25-  .04+    180615 807  .17-  .16-    180617 807  .09+  .05-    
180614 474  .13-  .19+    180615 291  .50+  .02+    180617 807  .05-  .07+    

Ephemerides (geocentric):
Date (UTC) HH   RA              Dec         delta   r     elong  mag " sig PA
---- -- -- --  -------------   -----------  ------ ------ -----  --- ---- ---
2018 06 17 14  14 41 18.320   -29 53 20.16  .39203 1.3373 139.1 21.3  .22 124
2018 06 17 15  14 41 22.808   -29 51 25.14  .39200 1.3372 139.1 21.3  .24 125
2018 06 17 16  14 41 27.301   -29 49 30.11  .39198 1.3371 139.1 21.3  .26 125
2018 06 17 17  14 41 31.799   -29 47 35.06  .39195 1.3370 139.1 21.3  .28 125
2018 06 17 18  14 41 36.303   -29 45 39.99  .39193 1.3369 139.1 21.3  .30 125
2018 06 17 19  14 41 40.812   -29 43 44.90  .39191 1.3369 139.0 21.3  .32 126
2018 06 17 20  14 41 45.325   -29 41 49.79  .39188 1.3368 139.0 21.3  .34 126
2018 06 17 21  14 41 49.844   -29 39 54.66  .39186 1.3367 139.0 21.3  .36 126
2018 06 17 22  14 41 54.369   -29 37 59.52  .39184 1.3366 139.0 21.3  .38 126
2018 06 17 23  14 41 58.898   -29 36 04.35  .39182 1.3365 138.9 21.3  .40 126
2018 06 18 00  14 42 03.432   -29 34 09.17  .39179 1.3364 138.9 21.3  .42 126
2018 06 18 01  14 42 07.972   -29 32 13.97  .39177 1.3363 138.9 21.3  .44 126
2018 06 18 02  14 42 12.517   -29 30 18.75  .39175 1.3362 138.9 21.3  .46 126
2018 06 18 03  14 42 17.066   -29 28 23.52  .39173 1.3361 138.9 21.3  .49 127
2018 06 18 04  14 42 21.621   -29 26 28.27  .39171 1.3360 138.8 21.3  .51 127
2018 06 18 05  14 42 26.181   -29 24 33.00  .39169 1.3359 138.8 21.3  .53 127
2018 06 18 06  14 42 30.747   -29 22 37.71  .39167 1.3358 138.8 21.3  .56 127
2018 06 18 07  14 42 35.317   -29 20 42.41  .39165 1.3358 138.8 21.3  .58 127
2018 06 18 08  14 42 39.892   -29 18 47.09  .39163 1.3357 138.7 21.3  .61 127
2018 06 18 09  14 42 44.473   -29 16 51.76  .39161 1.3356 138.7 21.3  .63 127
2018 06 18 10  14 42 49.058   -29 14 56.41  .39159 1.3355 138.7 21.3  .66 127
2018 06 18 11  14 42 53.649   -29 13 01.04  .39157 1.3354 138.7 21.3  .68 127
2018 06 18 12  14 42 58.245   -29 11 05.66  .39155 1.3353 138.7 21.3  .71 127
2018 06 18 13  14 43 02.846   -29 09 10.27  .39153 1.3352 138.6 21.3  .73 127
2018 06 18 14  14 43 07.451   -29 07 14.86  .39151 1.3351 138.6 21.3  .76 127
2018 06 18 15  14 43 12.062   -29 05 19.43  .39149 1.3350 138.6 21.3  .79 127
2018 06 18 16  14 43 16.678   -29 03 23.99  .39148 1.3349 138.6 21.3  .82 127
2018 06 18 17  14 43 21.299   -29 01 28.54  .39146 1.3348 138.5 21.3  .84 127
2018 06 18 18  14 43 25.925   -28 59 33.07  .39144 1.3348 138.5 21.3  .87 127
2018 06 18 19  14 43 30.556   -28 57 37.59  .39143 1.3347 138.5 21.3  .90 128
2018 06 18 20  14 43 35.192   -28 55 42.10  .39141 1.3346 138.5 21.3  .93 128
2018 06 18 21  14 43 39.833   -28 53 46.59  .39139 1.3345 138.5 21.3  .96 128
2018 06 18 22  14 43 44.479   -28 51 51.07  .39138 1.3344 138.4 21.3  1.0 128
2018 06 18 23  14 43 49.131   -28 49 55.54  .39136 1.3343 138.4 21.3  1.0 128
2018 06 19 00  14 43 53.787   -28 48 00.00  .39135 1.3342 138.4 21.3  1.1 128
2018 06 19 01  14 43 58.448   -28 46 04.44  .39133 1.3341 138.4 21.3  1.1 128
2018 06 19 02  14 44 03.114   -28 44 08.87  .39131 1.3340 138.3 21.3  1.1 128
2018 06 19 03  14 44 07.785   -28 42 13.29  .39130 1.3340 138.3 21.3  1.1 128
2018 06 19 04  14 44 12.460   -28 40 17.70  .39129 1.3339 138.3 21.3  1.2 128
2018 06 19 05  14 44 17.141   -28 38 22.10  .39127 1.3338 138.3 21.3  1.2 128
2018 06 19 06  14 44 21.827   -28 36 26.48  .39126 1.3337 138.3 21.3  1.2 128
2018 06 19 07  14 44 26.518   -28 34 30.86  .39124 1.3336 138.2 21.3  1.3 128
2018 06 19 08  14 44 31.214   -28 32 35.22  .39123 1.3335 138.2 21.3  1.3 128
2018 06 19 09  14 44 35.914   -28 30 39.58  .39122 1.3334 138.2 21.3  1.3 128
2018 06 19 10  14 44 40.620   -28 28 43.92  .39121 1.3333 138.2 21.3  1.4 128
2018 06 19 11  14 44 45.330   -28 26 48.25  .39119 1.3332 138.1 21.3  1.4 128
2018 06 19 12  14 44 50.046   -28 24 52.58  .39118 1.3332 138.1 21.3  1.5 128
2018 06 19 13  14 44 54.766   -28 22 56.89  .39117 1.3331 138.1 21.3  1.5 128